This is the latest recevied weather packets stored in our database for station/object W5CDN. If no packets are shown the sender has not sent any weather packets the latest 10 day(s).
| Time | Temp. | Humidity | Pressure | Rain* | Wind** | Luminosity | Snow |
|---|---|---|---|---|---|---|---|
| 1788409436 | 24.44° C | 99% | 1013.7 hPa | 0 mm | - | - | - |
| 1788409136 | 24.44° C | 99% | 1013.6 hPa | 0.25 mm | - | - | - |
| 1788408836 | 24.44° C | 99% | 1013.5 hPa | 0.25 mm | - | - | - |
| 1788408536 | 24.44° C | 99% | 1013.4 hPa | 0.25 mm | - | - | - |
| 1788408236 | 24.44° C | 99% | 1013.3 hPa | 0.25 mm | - | - | - |
| 1788407936 | 24.44° C | 99% | 1013.4 hPa | 0.76 mm | - | - | - |
| 1788407636 | 24.44° C | 99% | 1013.3 hPa | 1.27 mm | - | - | - |
| 1788407336 | 24.44° C | 99% | 1013.1 hPa | 1.78 mm | - | - | - |
| 1788407036 | 24.44° C | 99% | 1013.1 hPa | 2.29 mm | - | - | - |
| 1788406736 | 24.44° C | 99% | 1013.1 hPa | 2.79 mm | - | - | - |
| 1788406436 | 24.44° C | 99% | 1013.3 hPa | 3.05 mm | - | - | - |
| 1788406136 | 24.44° C | 99% | 1013.2 hPa | 3.56 mm | - | - | - |
| 1788405836 | 23.89° C | 99% | 1013.3 hPa | 4.06 mm | - | - | - |
| 1788405536 | 23.89° C | 99% | 1013.3 hPa | 3.81 mm | - | - | - |
| 1788405236 | 23.89° C | 99% | 1013.3 hPa | 4.32 mm | - | - | - |
| 1788404936 | 23.89° C | 99% | 1013.3 hPa | 4.57 mm | - | - | - |
| 1788404636 | 23.89° C | 99% | 1013.3 hPa | 4.57 mm | - | - | - |
| 1788404336 | 23.89° C | 99% | 1013.3 hPa | 4.57 mm | - | - | - |
| 1788404036 | 23.89° C | 99% | 1013.4 hPa | 4.06 mm | - | - | - |
| 1788403736 | 23.89° C | 99% | 1013.3 hPa | 3.56 mm | - | - | - |
| 1788403436 | 23.89° C | 99% | 1013.1 hPa | 3.3 mm | - | - | - |
| 1788403136 | 23.89° C | 99% | 1013 hPa | 2.79 mm | - | - | - |
| 1788402836 | 23.89° C | 99% | 1013.1 hPa | 2.29 mm | - | - | - |
| 1788402536 | 23.89° C | 99% | 1013.1 hPa | 2.29 mm | - | - | - |
| 1788402236 | 23.89° C | 99% | 1013.1 hPa | 1.78 mm | - | - | - |
* Rain latest hour (hover to see other rain measurements)
** Current wind speed in m/s (hover to see current wind gust speed)